This is the latest recevied weather packets stored in our database for station/object DL9GRB-13. If no packets are shown the sender has not sent any weather packets the latest 10 day(s).
| Time | Temp. | Humidity | Pressure | Rain* | Wind** | Luminosity | Snow |
|---|---|---|---|---|---|---|---|
| 1778155629 | 14.44° C | 49% | 1015.6 hPa | 0 mm | - | 773 W/m² | - |
| 1778155449 | 14.44° C | 50% | 1015.4 hPa | 0 mm | - | 778 W/m² | - |
| 1778155269 | 14.44° C | 50% | 1015.5 hPa | 0 mm | - | 778 W/m² | - |
| 1778155089 | 14.44° C | 52% | 1015.4 hPa | 0 mm | - | 781 W/m² | - |
| 1778154908 | 13.89° C | 52% | 1015.4 hPa | 0 mm | - | 781 W/m² | - |
| 1778154729 | 13.89° C | 49% | 1015.3 hPa | 0 mm | - | 783 W/m² | - |
| 1778154549 | 13.89° C | 52% | 1015.7 hPa | 0 mm | - | 786 W/m² | - |
| 1778154369 | 13.89° C | 54% | 1015.6 hPa | 0 mm | - | 788 W/m² | - |
| 1778154189 | 13.89° C | 53% | 1015.4 hPa | 0 mm | - | 790 W/m² | - |
| 1778154009 | 13.89° C | 53% | 1015.4 hPa | 0 mm | - | 792 W/m² | - |
| 1778153828 | 13.89° C | 53% | 1015.4 hPa | 0 mm | - | 797 W/m² | - |
| 1778153648 | 13.89° C | 56% | 1015.6 hPa | 0 mm | - | 797 W/m² | - |
| 1778153469 | 13.89° C | 56% | 1015.4 hPa | 0 mm | - | 798 W/m² | - |
| 1778153288 | 14.44° C | 55% | 1015.4 hPa | 0 mm | - | 802 W/m² | - |
| 1778153109 | 14.44° C | 53% | 1015.4 hPa | 0 mm | - | 804 W/m² | - |
| 1778152929 | 13.89° C | 53% | 1015.4 hPa | 0 mm | - | 806 W/m² | - |
| 1778152749 | 13.89° C | 54% | 1015.4 hPa | 0 mm | - | 806 W/m² | - |
| 1778152569 | 13.89° C | 51% | 1015.3 hPa | 0 mm | - | 809 W/m² | - |
| 1778152389 | 13.89° C | 52% | 1015.4 hPa | 0 mm | - | 808 W/m² | - |
| 1778152208 | 13.89° C | 54% | 1015.4 hPa | 0 mm | - | 807 W/m² | - |
| 1778152028 | 13.89° C | 54% | 1015.3 hPa | 0 mm | - | 808 W/m² | - |
| 1778151849 | 13.33° C | 54% | 1015.3 hPa | 0 mm | - | 807 W/m² | - |
| 1778151669 | 13.33° C | 53% | 1015.3 hPa | 0 mm | - | 807 W/m² | - |
| 1778151489 | 13.33° C | 53% | 1015.4 hPa | 0 mm | - | 806 W/m² | - |
| 1778151309 | 13.33° C | 53% | 1015.4 hPa | 0 mm | - | 804 W/m² | - |
* Rain latest hour (hover to see other rain measurements)
** Current wind speed in m/s (hover to see current wind gust speed)